M I D A S
Marine Information and Data Acquisition System
Tripno 1511 of the Zeeleeuw from 2008-06-26 07:06:18 to 2008-06-26 14:06:15
Back to CruiseResearch ActivitiesStationsMapUnderway DataData graphs

EquipmentUnitsComments
TimeDGPSUTC
LatitudeDGPSDM.mWGS84
LongitudeDGPSDM.mWGS84
SpeedMeteo Stationm/sRelative wind speed
DirectionMeteo StationdegRelative wind direction
TemperatureMeteo Stationdeg CelciusAir temperature
PressureMeteo StationPaAtmospheric pressure
HumidityMeteo Station%Relative humidity
Missing or incorrect values are displayed as -999
Metereological data collected by the RV Zeeleeuw from 2008-06-26 07:00:21 to 2008-06-26 14:08:35
Time Latitude Longitude Speed Direction Temperature Pressure Humidity
2008-06-26 07:01 51°13.643 2°55.982 -999 -999 -999 -999 -999
2008-06-26 07:02 51°13.676 2°55.865 -999 -999 -999 -999 -999
2008-06-26 07:03 51°13.69 2°55.774 -999 -999 -999 -999 -999
2008-06-26 07:04 51°13.692 2°55.726 -999 -999 -999 -999 -999
2008-06-26 07:05 51°13.716 2°55.74 -999 -999 -999 -999 -999
2008-06-26 07:06 51°13.792 2°55.673 -999 -999 -999 -999 -999
2008-06-26 07:07 51°13.923 2°55.564 -999 -999 -999 -999 -999
2008-06-26 07:08 51°14.06 2°55.459 -999 -999 -999 -999 -999
2008-06-26 07:09 51°14.195 2°55.343 -999 -999 -999 -999 -999
2008-06-26 07:10 51°14.306 2°55.173 -999 -999 -999 -999 -999
2008-06-26 07:11 51°14.422 2°54.939 -999 -999 -999 -999 -999
2008-06-26 07:12 51°14.55 2°54.699 -999 -999 -999 -999 -999
2008-06-26 07:13 51°14.647 2°54.423 -999 -999 -999 -999 -999
2008-06-26 07:14 51°14.741 2°54.154 -999 -999 -999 -999 -999
2008-06-26 07:15 51°14.839 2°53.877 -999 -999 -999 -999 -999
2008-06-26 07:16 51°14.928 2°53.603 -999 -999 -999 -999 -999
2008-06-26 07:17 51°15.025 2°53.322 -999 -999 -999 -999 -999
2008-06-26 07:18 51°15.118 2°53.042 -999 -999 -999 -999 -999
2008-06-26 07:19 51°15.201 2°52.762 -999 -999 -999 -999 -999
2008-06-26 07:20 51°15.284 2°52.477 -999 -999 -999 -999 -999
2008-06-26 07:21 51°15.335 2°52.174 -999 -999 -999 -999 -999
2008-06-26 07:22 51°15.388 2°51.874 -999 -999 -999 -999 -999
2008-06-26 07:23 51°15.423 2°51.569 -999 -999 -999 -999 -999
2008-06-26 07:24 51°15.439 2°51.259 -999 -999 -999 -999 -999
2008-06-26 07:25 51°15.433 2°50.951 -999 -999 -999 -999 -999
2008-06-26 07:26 51°15.423 2°50.642 -999 -999 -999 -999 -999
2008-06-26 07:27 51°15.421 2°50.332 -999 -999 -999 -999 -999
2008-06-26 07:28 51°15.42 2°50.021 -999 -999 -999 -999 -999
2008-06-26 07:29 51°15.426 2°49.714 -999 -999 -999 -999 -999
2008-06-26 07:30 51°15.426 2°49.406 -999 -999 -999 -999 -999
2008-06-26 07:31 51°15.424 2°49.096 -999 -999 -999 -999 -999
2008-06-26 07:32 51°15.43 2°48.785 -999 -999 -999 -999 -999
2008-06-26 07:33 51°15.428 2°48.477 -999 -999 -999 -999 -999
2008-06-26 07:34 51°15.433 2°48.168 -999 -999 -999 -999 -999
2008-06-26 07:35 51°15.422 2°47.86 -999 -999 -999 -999 -999
2008-06-26 07:36 51°15.426 2°47.548 -999 -999 -999 -999 -999
2008-06-26 07:37 51°15.423 2°47.235 -999 -999 -999 -999 -999
2008-06-26 07:38 51°15.411 2°46.923 -999 -999 -999 -999 -999
2008-06-26 07:39 51°15.402 2°46.61 -999 -999 -999 -999 -999
2008-06-26 07:40 51°15.401 2°46.297 -999 -999 -999 -999 -999
2008-06-26 07:41 51°15.391 2°45.986 -999 -999 -999 -999 -999
2008-06-26 07:42 51°15.38 2°45.677 -999 -999 -999 -999 -999
2008-06-26 07:43 51°15.371 2°45.37 -999 -999 -999 -999 -999
2008-06-26 07:44 51°15.366 2°45.061 -999 -999 -999 -999 -999
2008-06-26 07:45 51°15.363 2°44.751 -999 -999 -999 -999 -999
2008-06-26 07:46 51°15.355 2°44.442 -999 -999 -999 -999 -999
2008-06-26 07:47 51°15.347 2°44.135 -999 -999 -999 -999 -999
2008-06-26 07:48 51°15.347 2°43.822 -999 -999 -999 -999 -999
2008-06-26 07:49 51°15.342 2°43.513 -999 -999 -999 -999 -999
2008-06-26 07:50 51°15.335 2°43.201 -999 -999 -999 -999 -999
2008-06-26 07:51 51°15.328 2°42.891 -999 -999 -999 -999 -999
2008-06-26 07:52 51°15.32 2°42.581 -999 -999 -999 -999 -999
2008-06-26 07:53 51°15.333 2°42.269 -999 -999 -999 -999 -999
2008-06-26 07:54 51°15.378 2°41.963 -999 -999 -999 -999 -999
2008-06-26 07:55 51°15.444 2°41.662 -999 -999 -999 -999 -999
2008-06-26 07:56 51°15.518 2°41.366 -999 -999 -999 -999 -999
2008-06-26 07:57 51°15.593 2°41.07 -999 -999 -999 -999 -999
2008-06-26 07:58 51°15.682 2°40.782 -999 -999 -999 -999 -999
2008-06-26 07:59 51°15.783 2°40.504 -999 -999 -999 -999 -999
2008-06-26 08:00 51°15.885 2°40.226 -999 -999 -999 -999 -999
2008-06-26 08:01 51°15.978 2°39.942 -999 -999 -999 -999 -999
2008-06-26 08:02 51°16.073 2°39.661 -999 -999 -999 -999 -999
2008-06-26 08:03 51°16.167 2°39.378 -999 -999 -999 -999 -999
2008-06-26 08:04 51°16.261 2°39.096 -999 -999 -999 -999 -999
2008-06-26 08:05 51°16.351 2°38.812 -999 -999 -999 -999 -999
2008-06-26 08:06 51°16.44 2°38.528 -999 -999 -999 -999 -999
2008-06-26 08:07 51°16.527 2°38.243 -999 -999 -999 -999 -999
2008-06-26 08:08 51°16.618 2°37.956 -999 -999 -999 -999 -999
2008-06-26 08:09 51°16.715 2°37.673 -999 -999 -999 -999 -999
2008-06-26 08:10 51°16.814 2°37.397 -999 -999 -999 -999 -999
2008-06-26 08:11 51°16.909 2°37.119 -999 -999 -999 -999 -999
2008-06-26 08:12 51°17.004 2°36.839 -999 -999 -999 -999 -999
2008-06-26 08:13 51°17.098 2°36.558 -999 -999 -999 -999 -999
2008-06-26 08:14 51°17.194 2°36.277 -999 -999 -999 -999 -999
2008-06-26 08:15 51°17.285 2°35.991 -999 -999 -999 -999 -999
2008-06-26 08:16 51°17.382 2°35.709 -999 -999 -999 -999 -999
2008-06-26 08:17 51°17.47 2°35.424 -999 -999 -999 -999 -999
2008-06-26 08:18 51°17.559 2°35.136 -999 -999 -999 -999 -999
2008-06-26 08:19 51°17.655 2°34.856 -999 -999 -999 -999 -999
2008-06-26 08:20 51°17.739 2°34.572 -999 -999 -999 -999 -999
2008-06-26 08:21 51°17.8 2°34.316 -999 -999 -999 -999 -999
2008-06-26 08:22 51°17.802 2°34.242 -999 -999 -999 -999 -999
2008-06-26 08:23 51°17.806 2°34.252 -999 -999 -999 -999 -999
2008-06-26 08:24 51°17.812 2°34.27 -999 -999 -999 -999 -999
2008-06-26 08:25 51°17.799 2°34.298 -999 -999 -999 -999 -999
2008-06-26 08:26 51°17.759 2°34.257 -999 -999 -999 -999 -999
2008-06-26 08:27 51°17.759 2°34.131 -999 -999 -999 -999 -999
2008-06-26 08:28 51°17.784 2°34.002 -999 -999 -999 -999 -999
2008-06-26 08:29 51°17.835 2°33.968 -999 -999 -999 -999 -999
2008-06-26 08:30 51°17.876 2°33.981 -999 -999 -999 -999 -999
2008-06-26 08:31 51°17.876 2°33.982 -999 -999 -999 -999 -999
2008-06-26 08:32 51°17.875 2°33.985 -999 -999 -999 -999 -999
2008-06-26 08:33 51°17.876 2°34.035 -999 -999 -999 -999 -999
2008-06-26 08:34 51°17.862 2°34.112 -999 -999 -999 -999 -999
2008-06-26 08:35 51°17.901 2°34.2 -999 -999 -999 -999 -999
2008-06-26 08:36 51°17.959 2°34.174 -999 -999 -999 -999 -999
2008-06-26 08:37 51°17.943 2°34.087 -999 -999 -999 -999 -999
2008-06-26 08:38 51°17.901 2°34.052 -999 -999 -999 -999 -999
2008-06-26 08:39 51°17.873 2°34.005 -999 -999 -999 -999 -999
2008-06-26 08:40 51°17.84 2°34.012 -999 -999 -999 -999 -999
2008-06-26 08:41 51°17.825 2°34.086 -999 -999 -999 -999 -999
2008-06-26 08:42 51°17.853 2°34.146 -999 -999 -999 -999 -999
2008-06-26 08:43 51°17.88 2°34.177 -999 -999 -999 -999 -999
2008-06-26 08:44 51°17.902 2°34.2 -999 -999 -999 -999 -999
2008-06-26 08:45 51°17.921 2°34.219 -999 -999 -999 -999 -999
2008-06-26 08:46 51°17.935 2°34.233 -999 -999 -999 -999 -999
2008-06-26 08:47 51°17.948 2°34.245 -999 -999 -999 -999 -999
2008-06-26 08:48 51°17.958 2°34.258 -999 -999 -999 -999 -999
2008-06-26 08:49 51°17.967 2°34.271 -999 -999 -999 -999 -999
2008-06-26 08:50 51°17.974 2°34.284 -999 -999 -999 -999 -999
2008-06-26 08:51 51°17.979 2°34.299 -999 -999 -999 -999 -999
2008-06-26 08:52 51°17.983 2°34.315 -999 -999 -999 -999 -999
2008-06-26 08:53 51°17.987 2°34.331 -999 -999 -999 -999 -999
2008-06-26 08:54 51°17.99 2°34.347 -999 -999 -999 -999 -999
2008-06-26 08:55 51°17.992 2°34.363 -999 -999 -999 -999 -999
2008-06-26 08:56 51°17.994 2°34.378 -999 -999 -999 -999 -999
2008-06-26 08:57 51°17.996 2°34.391 -999 -999 -999 -999 -999
2008-06-26 08:58 51°17.998 2°34.404 -999 -999 -999 -999 -999
2008-06-26 08:59 51°18.001 2°34.418 -999 -999 -999 -999 -999
2008-06-26 09:00 51°18.006 2°34.431 -999 -999 -999 -999 -999
2008-06-26 09:01 51°18.012 2°34.443 -999 -999 -999 -999 -999
2008-06-26 09:02 51°18.018 2°34.456 -999 -999 -999 -999 -999
2008-06-26 09:03 51°18.024 2°34.468 -999 -999 -999 -999 -999
2008-06-26 09:04 51°18.029 2°34.48 -999 -999 -999 -999 -999
2008-06-26 09:05 51°18.033 2°34.492 -999 -999 -999 -999 -999
2008-06-26 09:06 51°18.037 2°34.503 -999 -999 -999 -999 -999
2008-06-26 09:07 51°18.04 2°34.515 -999 -999 -999 -999 -999
2008-06-26 09:08 51°18.042 2°34.526 -999 -999 -999 -999 -999
2008-06-26 09:09 51°18.043 2°34.539 -999 -999 -999 -999 -999
2008-06-26 09:10 51°18.058 2°34.541 -999 -999 -999 -999 -999
2008-06-26 09:11 51°18.095 2°34.445 -999 -999 -999 -999 -999
2008-06-26 09:12 51°18.051 2°34.356 -999 -999 -999 -999 -999
2008-06-26 09:13 51°18.001 2°34.34 -999 -999 -999 -999 -999
2008-06-26 09:14 51°17.978 2°34.358 -999 -999 -999 -999 -999
2008-06-26 09:15 51°17.965 2°34.377 -999 -999 -999 -999 -999
2008-06-26 09:16 51°17.955 2°34.394 -999 -999 -999 -999 -999
2008-06-26 09:17 51°17.946 2°34.406 -999 -999 -999 -999 -999
2008-06-26 09:18 51°17.939 2°34.417 -999 -999 -999 -999 -999
2008-06-26 09:19 51°17.937 2°34.425 -999 -999 -999 -999 -999
2008-06-26 09:20 51°17.935 2°34.434 -999 -999 -999 -999 -999
2008-06-26 09:21 51°17.933 2°34.447 -999 -999 -999 -999 -999
2008-06-26 09:22 51°17.933 2°34.457 -999 -999 -999 -999 -999
2008-06-26 09:23 51°17.933 2°34.468 -999 -999 -999 -999 -999
2008-06-26 09:24 51°17.933 2°34.479 -999 -999 -999 -999 -999
2008-06-26 09:25 51°17.923 2°34.488 -999 -999 -999 -999 -999
2008-06-26 09:26 51°17.901 2°34.468 -999 -999 -999 -999 -999
2008-06-26 09:27 51°17.903 2°34.395 -999 -999 -999 -999 -999
2008-06-26 09:28 51°17.939 2°34.365 -999 -999 -999 -999 -999
2008-06-26 09:29 51°17.973 2°34.365 -999 -999 -999 -999 -999
2008-06-26 09:30 51°18.008 2°34.372 -999 -999 -999 -999 -999
2008-06-26 09:31 51°18.034 2°34.372 -999 -999 -999 -999 -999
2008-06-26 09:32 51°18.048 2°34.371 -999 -999 -999 -999 -999
2008-06-26 09:33 51°18.057 2°34.37 -999 -999 -999 -999 -999
2008-06-26 09:34 51°18.065 2°34.371 -999 -999 -999 -999 -999
2008-06-26 09:35 51°18.071 2°34.373 -999 -999 -999 -999 -999
2008-06-26 09:36 51°18.077 2°34.376 -999 -999 -999 -999 -999
2008-06-26 09:37 51°18.082 2°34.379 -999 -999 -999 -999 -999
2008-06-26 09:38 51°18.087 2°34.378 -999 -999 -999 -999 -999
2008-06-26 09:39 51°18.09 2°34.391 -999 -999 -999 -999 -999
2008-06-26 09:40 51°18.093 2°34.397 -999 -999 -999 -999 -999
2008-06-26 09:41 51°18.097 2°34.404 -999 -999 -999 -999 -999
2008-06-26 09:42 51°18.1 2°34.411 -999 -999 -999 -999 -999
2008-06-26 09:43 51°18.102 2°34.418 -999 -999 -999 -999 -999
2008-06-26 09:44 51°18.104 2°34.425 -999 -999 -999 -999 -999
2008-06-26 09:45 51°18.107 2°34.432 -999 -999 -999 -999 -999
2008-06-26 09:46 51°18.11 2°34.439 -999 -999 -999 -999 -999
2008-06-26 09:47 51°18.114 2°34.444 -999 -999 -999 -999 -999
2008-06-26 09:48 51°18.118 2°34.449 -999 -999 -999 -999 -999
2008-06-26 09:49 51°18.176 2°34.432 -999 -999 -999 -999 -999
2008-06-26 09:50 51°18.327 2°34.388 -999 -999 -999 -999 -999
2008-06-26 09:51 51°18.509 2°34.331 -999 -999 -999 -999 -999
2008-06-26 09:52 51°18.701 2°34.253 -999 -999 -999 -999 -999
2008-06-26 09:53 51°18.896 2°34.164 -999 -999 -999 -999 -999
2008-06-26 09:54 51°19.075 2°34.007 -999 -999 -999 -999 -999
2008-06-26 09:55 51°19.26 2°33.855 -999 -999 -999 -999 -999
2008-06-26 09:56 51°19.436 2°33.687 -999 -999 -999 -999 -999
2008-06-26 09:57 51°19.569 2°33.44 -999 -999 -999 -999 -999
2008-06-26 09:58 51°19.71 2°33.193 -999 -999 -999 -999 -999
2008-06-26 09:59 51°19.85 2°32.966 -999 -999 -999 -999 -999
2008-06-26 10:00 51°20.009 2°32.763 -999 -999 -999 -999 -999
2008-06-26 10:01 51°20.17 2°32.561 -999 -999 -999 -999 -999
2008-06-26 10:02 51°20.328 2°32.352 -999 -999 -999 -999 -999
2008-06-26 10:03 51°20.484 2°32.143 -999 -999 -999 -999 -999
2008-06-26 10:04 51°20.64 2°31.935 -999 -999 -999 -999 -999
2008-06-26 10:05 51°20.797 2°31.724 -999 -999 -999 -999 -999
2008-06-26 10:06 51°20.949 2°31.499 -999 -999 -999 -999 -999
2008-06-26 10:07 51°21.088 2°31.244 -999 -999 -999 -999 -999
2008-06-26 10:08 51°21.23 2°30.987 -999 -999 -999 -999 -999
2008-06-26 10:09 51°21.376 2°30.75 -999 -999 -999 -999 -999
2008-06-26 10:10 51°21.56 2°30.621 -999 -999 -999 -999 -999
2008-06-26 10:11 51°21.754 2°30.535 -999 -999 -999 -999 -999
2008-06-26 10:12 51°21.948 2°30.439 -999 -999 -999 -999 -999
2008-06-26 10:13 51°22.14 2°30.345 -999 -999 -999 -999 -999
2008-06-26 10:14 51°22.332 2°30.245 -999 -999 -999 -999 -999
2008-06-26 10:15 51°22.525 2°30.148 -999 -999 -999 -999 -999
2008-06-26 10:16 51°22.719 2°30.047 -999 -999 -999 -999 -999
2008-06-26 10:17 51°22.916 2°29.974 -999 -999 -999 -999 -999
2008-06-26 10:18 51°23.118 2°29.986 -999 -999 -999 -999 -999
2008-06-26 10:19 51°23.317 2°29.993 -999 -999 -999 -999 -999
2008-06-26 10:20 51°23.511 2°29.991 -999 -999 -999 -999 -999
2008-06-26 10:21 51°23.643 2°29.979 -999 -999 -999 -999 -999
2008-06-26 10:22 51°23.735 2°29.951 -999 -999 -999 -999 -999
2008-06-26 10:23 51°23.79 2°29.897 -999 -999 -999 -999 -999
2008-06-26 10:24 51°23.804 2°29.816 -999 -999 -999 -999 -999
2008-06-26 10:25 51°23.791 2°29.766 -999 -999 -999 -999 -999
2008-06-26 10:26 51°23.778 2°29.751 -999 -999 -999 -999 -999
2008-06-26 10:27 51°23.772 2°29.749 -999 -999 -999 -999 -999
2008-06-26 10:28 51°23.77 2°29.753 -999 -999 -999 -999 -999
2008-06-26 10:29 51°23.764 2°29.759 -999 -999 -999 -999 -999
2008-06-26 10:30 51°23.76 2°29.765 -999 -999 -999 -999 -999
2008-06-26 10:31 51°23.757 2°29.771 -999 -999 -999 -999 -999
2008-06-26 10:32 51°23.752 2°29.775 -999 -999 -999 -999 -999
2008-06-26 10:33 51°23.749 2°29.779 -999 -999 -999 -999 -999
2008-06-26 10:34 51°23.745 2°29.781 -999 -999 -999 -999 -999
2008-06-26 10:35 51°23.743 2°29.783 -999 -999 -999 -999 -999
2008-06-26 10:36 51°23.742 2°29.786 -999 -999 -999 -999 -999
2008-06-26 10:37 51°23.742 2°29.79 -999 -999 -999 -999 -999
2008-06-26 10:38 51°23.741 2°29.794 -999 -999 -999 -999 -999
2008-06-26 10:39 51°23.738 2°29.799 -999 -999 -999 -999 -999
2008-06-26 10:40 51°23.736 2°29.801 -999 -999 -999 -999 -999
2008-06-26 10:41 51°23.748 2°29.8 -999 -999 -999 -999 -999
2008-06-26 10:42 51°23.744 2°29.803 -999 -999 -999 -999 -999
2008-06-26 10:43 51°23.745 2°29.804 -999 -999 -999 -999 -999
2008-06-26 10:44 51°23.747 2°29.803 -999 -999 -999 -999 -999
2008-06-26 10:45 51°23.75 2°29.803 -999 -999 -999 -999 -999
2008-06-26 10:46 51°23.748 2°29.807 -999 -999 -999 -999 -999
2008-06-26 10:47 51°23.731 2°29.812 -999 -999 -999 -999 -999
2008-06-26 10:48 51°23.716 2°29.811 -999 -999 -999 -999 -999
2008-06-26 10:49 51°23.697 2°29.806 -999 -999 -999 -999 -999
2008-06-26 10:50 51°23.688 2°29.801 -999 -999 -999 -999 -999
2008-06-26 10:51 51°23.682 2°29.797 -999 -999 -999 -999 -999
2008-06-26 10:52 51°23.686 2°29.796 -999 -999 -999 -999 -999
2008-06-26 10:53 51°23.688 2°29.793 -999 -999 -999 -999 -999
2008-06-26 10:54 51°23.69 2°29.789 -999 -999 -999 -999 -999
2008-06-26 10:55 51°23.689 2°29.789 -999 -999 -999 -999 -999
2008-06-26 10:56 51°23.688 2°29.788 -999 -999 -999 -999 -999
2008-06-26 10:57 51°23.685 2°29.787 -999 -999 -999 -999 -999
2008-06-26 10:58 51°23.681 2°29.787 -999 -999 -999 -999 -999
2008-06-26 10:59 51°23.677 2°29.786 -999 -999 -999 -999 -999
2008-06-26 11:00 51°23.666 2°29.8 -999 -999 -999 -999 -999
2008-06-26 11:01 51°23.658 2°29.849 -999 -999 -999 -999 -999
2008-06-26 11:02 51°23.685 2°29.883 -999 -999 -999 -999 -999
2008-06-26 11:03 51°23.715 2°29.867 -999 -999 -999 -999 -999
2008-06-26 11:04 51°23.732 2°29.83 -999 -999 -999 -999 -999
2008-06-26 11:05 51°23.736 2°29.809 -999 -999 -999 -999 -999
2008-06-26 11:06 51°23.732 2°29.808 -999 -999 -999 -999 -999
2008-06-26 11:07 51°23.727 2°29.804 -999 -999 -999 -999 -999
2008-06-26 11:08 51°23.727 2°29.796 -999 -999 -999 -999 -999
2008-06-26 11:09 51°23.725 2°29.787 -999 -999 -999 -999 -999
2008-06-26 11:10 51°23.721 2°29.779 -999 -999 -999 -999 -999
2008-06-26 11:11 51°23.716 2°29.772 -999 -999 -999 -999 -999
2008-06-26 11:12 51°23.712 2°29.768 -999 -999 -999 -999 -999
2008-06-26 11:13 51°23.706 2°29.763 -999 -999 -999 -999 -999
2008-06-26 11:14 51°23.701 2°29.757 -999 -999 -999 -999 -999
2008-06-26 11:15 51°23.706 2°29.746 -999 -999 -999 -999 -999
2008-06-26 11:16 51°23.734 2°29.746 -999 -999 -999 -999 -999
2008-06-26 11:17 51°23.749 2°29.777 -999 -999 -999 -999 -999
2008-06-26 11:18 51°23.744 2°29.798 -999 -999 -999 -999 -999
2008-06-26 11:19 51°23.736 2°29.802 -999 -999 -999 -999 -999
2008-06-26 11:20 51°23.727 2°29.795 -999 -999 -999 -999 -999
2008-06-26 11:21 51°23.717 2°29.787 -999 -999 -999 -999 -999
2008-06-26 11:22 51°23.71 2°29.777 -999 -999 -999 -999 -999
2008-06-26 11:23 51°23.704 2°29.768 -999 -999 -999 -999 -999
2008-06-26 11:24 51°23.698 2°29.759 -999 -999 -999 -999 -999
2008-06-26 11:25 51°23.693 2°29.751 -999 -999 -999 -999 -999
2008-06-26 11:26 51°23.685 2°29.75 -999 -999 -999 -999 -999
2008-06-26 11:27 51°23.668 2°29.784 -999 -999 -999 -999 -999
2008-06-26 11:28 51°23.683 2°29.822 -999 -999 -999 -999 -999
2008-06-26 11:29 51°23.721 2°29.85 -999 -999 -999 -999 -999
2008-06-26 11:30 51°23.759 2°29.843 -999 -999 -999 -999 -999
2008-06-26 11:31 51°23.761 2°29.829 -999 -999 -999 -999 -999
2008-06-26 11:32 51°23.755 2°29.822 -999 -999 -999 -999 -999
2008-06-26 11:33 51°23.748 2°29.815 -999 -999 -999 -999 -999
2008-06-26 11:34 51°23.741 2°29.807 -999 -999 -999 -999 -999
2008-06-26 11:35 51°23.736 2°29.794 -999 -999 -999 -999 -999
2008-06-26 11:36 51°23.732 2°29.781 -999 -999 -999 -999 -999
2008-06-26 11:37 51°23.727 2°29.769 -999 -999 -999 -999 -999
2008-06-26 11:38 51°23.722 2°29.758 -999 -999 -999 -999 -999
2008-06-26 11:39 51°23.717 2°29.748 -999 -999 -999 -999 -999
2008-06-26 11:40 51°23.706 2°29.737 -999 -999 -999 -999 -999
2008-06-26 11:41 51°23.705 2°29.723 -999 -999 -999 -999 -999
2008-06-26 11:42 51°23.714 2°29.702 -999 -999 -999 -999 -999
2008-06-26 11:43 51°23.74 2°29.691 -999 -999 -999 -999 -999
2008-06-26 11:44 51°23.76 2°29.727 -999 -999 -999 -999 -999
2008-06-26 11:45 51°23.77 2°29.779 -999 -999 -999 -999 -999
2008-06-26 11:46 51°23.77 2°29.819 -999 -999 -999 -999 -999
2008-06-26 11:47 51°23.759 2°29.843 -999 -999 -999 -999 -999
2008-06-26 11:48 51°23.747 2°29.838 -999 -999 -999 -999 -999
2008-06-26 11:49 51°23.739 2°29.823 -999 -999 -999 -999 -999
2008-06-26 11:50 51°23.732 2°29.807 -999 -999 -999 -999 -999
2008-06-26 11:51 51°23.725 2°29.793 -999 -999 -999 -999 -999
2008-06-26 11:52 51°23.717 2°29.779 -999 -999 -999 -999 -999
2008-06-26 11:53 51°23.708 2°29.766 -999 -999 -999 -999 -999
2008-06-26 11:54 51°23.699 2°29.755 -999 -999 -999 -999 -999
2008-06-26 11:55 51°23.688 2°29.745 -999 -999 -999 -999 -999
2008-06-26 11:56 51°23.671 2°29.744 -999 -999 -999 -999 -999
2008-06-26 11:57 51°23.648 2°29.77 -999 -999 -999 -999 -999
2008-06-26 11:58 51°23.645 2°29.811 -999 -999 -999 -999 -999
2008-06-26 11:59 51°23.67 2°29.838 -999 -999 -999 -999 -999
2008-06-26 12:00 51°23.705 2°29.88 -999 -999 -999 -999 -999
2008-06-26 12:01 51°23.742 2°29.889 -999 -999 -999 -999 -999
2008-06-26 12:02 51°23.763 2°29.871 -999 -999 -999 -999 -999
2008-06-26 12:03 51°23.766 2°29.846 -999 -999 -999 -999 -999
2008-06-26 12:04 51°23.76 2°29.829 -999 -999 -999 -999 -999
2008-06-26 12:05 51°23.748 2°29.82 -999 -999 -999 -999 -999
2008-06-26 12:06 51°23.739 2°29.808 -999 -999 -999 -999 -999
2008-06-26 12:07 51°23.729 2°29.796 -999 -999 -999 -999 -999
2008-06-26 12:08 51°23.719 2°29.784 -999 -999 -999 -999 -999
2008-06-26 12:09 51°23.709 2°29.773 -999 -999 -999 -999 -999
2008-06-26 12:10 51°23.7 2°29.762 -999 -999 -999 -999 -999
2008-06-26 12:11 51°23.69 2°29.751 -999 -999 -999 -999 -999
2008-06-26 12:12 51°23.68 2°29.741 -999 -999 -999 -999 -999
2008-06-26 12:13 51°23.671 2°29.731 -999 -999 -999 -999 -999
2008-06-26 12:14 51°23.662 2°29.72 -999 -999 -999 -999 -999
2008-06-26 12:15 51°23.653 2°29.708 -999 -999 -999 -999 -999
2008-06-26 12:16 51°23.65 2°29.69 -999 -999 -999 -999 -999
2008-06-26 12:17 51°23.655 2°29.6 -999 -999 -999 -999 -999
2008-06-26 12:18 51°23.589 2°29.526 -999 -999 -999 -999 -999
2008-06-26 12:19 51°23.467 2°29.615 -999 -999 -999 -999 -999
2008-06-26 12:20 51°23.31 2°29.732 -999 -999 -999 -999 -999
2008-06-26 12:21 51°23.139 2°29.864 -999 -999 -999 -999 -999
2008-06-26 12:22 51°22.982 2°30.018 -999 -999 -999 -999 -999
2008-06-26 12:23 51°22.823 2°30.217 -999 -999 -999 -999 -999
2008-06-26 12:24 51°22.711 2°30.462 -999 -999 -999 -999 -999
2008-06-26 12:25 51°22.593 2°30.712 -999 -999 -999 -999 -999
2008-06-26 12:26 51°22.471 2°30.951 -999 -999 -999 -999 -999
2008-06-26 12:27 51°22.345 2°31.185 -999 -999 -999 -999 -999
2008-06-26 12:28 51°22.221 2°31.416 -999 -999 -999 -999 -999
2008-06-26 12:29 51°22.091 2°31.648 -999 -999 -999 -999 -999
2008-06-26 12:30 51°21.96 2°31.887 -999 -999 -999 -999 -999
2008-06-26 12:31 51°21.839 2°32.119 -999 -999 -999 -999 -999
2008-06-26 12:32 51°21.713 2°32.365 -999 -999 -999 -999 -999
2008-06-26 12:33 51°21.591 2°32.613 -999 -999 -999 -999 -999
2008-06-26 12:34 51°21.463 2°32.858 -999 -999 -999 -999 -999
2008-06-26 12:35 51°21.339 2°33.105 -999 -999 -999 -999 -999
2008-06-26 12:36 51°21.218 2°33.357 -999 -999 -999 -999 -999
2008-06-26 12:37 51°21.092 2°33.607 -999 -999 -999 -999 -999
2008-06-26 12:38 51°20.975 2°33.847 -999 -999 -999 -999 -999
2008-06-26 12:39 51°20.85 2°34.097 -999 -999 -999 -999 -999
2008-06-26 12:40 51°20.731 2°34.335 -999 -999 -999 -999 -999
2008-06-26 12:41 51°20.609 2°34.578 -999 -999 -999 -999 -999
2008-06-26 12:42 51°20.485 2°34.827 -999 -999 -999 -999 -999
2008-06-26 12:43 51°20.368 2°35.067 -999 -999 -999 -999 -999
2008-06-26 12:44 51°20.245 2°35.31 -999 -999 -999 -999 -999
2008-06-26 12:45 51°20.126 2°35.547 -999 -999 -999 -999 -999
2008-06-26 12:46 51°20 2°35.788 -999 -999 -999 -999 -999
2008-06-26 12:47 51°19.88 2°36.027 -999 -999 -999 -999 -999
2008-06-26 12:48 51°19.751 2°36.275 -999 -999 -999 -999 -999
2008-06-26 12:49 51°19.629 2°36.515 -999 -999 -999 -999 -999
2008-06-26 12:50 51°19.503 2°36.76 -999 -999 -999 -999 -999
2008-06-26 12:51 51°19.378 2°37.005 -999 -999 -999 -999 -999
2008-06-26 12:52 51°19.254 2°37.25 -999 -999 -999 -999 -999
2008-06-26 12:53 51°19.135 2°37.499 -999 -999 -999 -999 -999
2008-06-26 12:54 51°19.016 2°37.742 -999 -999 -999 -999 -999
2008-06-26 12:55 51°18.895 2°37.997 -999 -999 -999 -999 -999
2008-06-26 12:56 51°18.773 2°38.249 -999 -999 -999 -999 -999
2008-06-26 12:57 51°18.652 2°38.513 -999 -999 -999 -999 -999
2008-06-26 12:58 51°18.545 2°38.779 -999 -999 -999 -999 -999
2008-06-26 12:59 51°18.44 2°39.043 -999 -999 -999 -999 -999
2008-06-26 13:00 51°18.331 2°39.321 -999 -999 -999 -999 -999
2008-06-26 13:01 51°18.231 2°39.585 -999 -999 -999 -999 -999
2008-06-26 13:02 51°18.126 2°39.861 -999 -999 -999 -999 -999
2008-06-26 13:03 51°18.023 2°40.122 -999 -999 -999 -999 -999
2008-06-26 13:04 51°17.92 2°40.387 -999 -999 -999 -999 -999
2008-06-26 13:05 51°17.817 2°40.651 -999 -999 -999 -999 -999
2008-06-26 13:06 51°17.716 2°40.915 -999 -999 -999 -999 -999
2008-06-26 13:07 51°17.62 2°41.191 -999 -999 -999 -999 -999
2008-06-26 13:08 51°17.531 2°41.473 -999 -999 -999 -999 -999
2008-06-26 13:09 51°17.44 2°41.757 -999 -999 -999 -999 -999
2008-06-26 13:10 51°17.354 2°42.037 -999 -999 -999 -999 -999
2008-06-26 13:11 51°17.268 2°42.317 -999 -999 -999 -999 -999
2008-06-26 13:12 51°17.184 2°42.59 -999 -999 -999 -999 -999
2008-06-26 13:13 51°17.096 2°42.865 -999 -999 -999 -999 -999
2008-06-26 13:14 51°17.006 2°43.137 -999 -999 -999 -999 -999
2008-06-26 13:15 51°16.913 2°43.417 -999 -999 -999 -999 -999
2008-06-26 13:16 51°16.823 2°43.694 -999 -999 -999 -999 -999
2008-06-26 13:17 51°16.732 2°43.97 -999 -999 -999 -999 -999
2008-06-26 13:18 51°16.639 2°44.256 -999 -999 -999 -999 -999
2008-06-26 13:19 51°16.545 2°44.533 -999 -999 -999 -999 -999
2008-06-26 13:20 51°16.453 2°44.824 -999 -999 -999 -999 -999
2008-06-26 13:21 51°16.371 2°45.117 -999 -999 -999 -999 -999
2008-06-26 13:22 51°16.282 2°45.412 -999 -999 -999 -999 -999
2008-06-26 13:23 51°16.201 2°45.701 -999 -999 -999 -999 -999
2008-06-26 13:24 51°16.12 2°45.995 -999 -999 -999 -999 -999
2008-06-26 13:25 51°16.038 2°46.29 -999 -999 -999 -999 -999
2008-06-26 13:26 51°15.953 2°46.583 -999 -999 -999 -999 -999
2008-06-26 13:27 51°15.867 2°46.879 -999 -999 -999 -999 -999
2008-06-26 13:28 51°15.791 2°47.176 -999 -999 -999 -999 -999
2008-06-26 13:29 51°15.727 2°47.474 -999 -999 -999 -999 -999
2008-06-26 13:30 51°15.665 2°47.768 -999 -999 -999 -999 -999
2008-06-26 13:31 51°15.596 2°48.069 -999 -999 -999 -999 -999
2008-06-26 13:32 51°15.531 2°48.367 -999 -999 -999 -999 -999
2008-06-26 13:33 51°15.469 2°48.666 -999 -999 -999 -999 -999
2008-06-26 13:34 51°15.407 2°48.965 -999 -999 -999 -999 -999
2008-06-26 13:35 51°15.348 2°49.263 -999 -999 -999 -999 -999
2008-06-26 13:36 51°15.284 2°49.574 -999 -999 -999 -999 -999
2008-06-26 13:37 51°15.227 2°49.865 -999 -999 -999 -999 -999
2008-06-26 13:38 51°15.164 2°50.172 -999 -999 -999 -999 -999
2008-06-26 13:39 51°15.101 2°50.471 -999 -999 -999 -999 -999
2008-06-26 13:40 51°15.039 2°50.77 -999 -999 -999 -999 -999
2008-06-26 13:41 51°14.976 2°51.064 -999 -999 -999 -999 -999
2008-06-26 13:42 51°14.921 2°51.355 -999 -999 -999 -999 -999
2008-06-26 13:43 51°14.865 2°51.649 -999 -999 -999 -999 -999
2008-06-26 13:44 51°14.816 2°51.947 -999 -999 -999 -999 -999
2008-06-26 13:45 51°14.776 2°52.249 -999 -999 -999 -999 -999
2008-06-26 13:46 51°14.736 2°52.548 -999 -999 -999 -999 -999
2008-06-26 13:47 51°14.693 2°52.849 -999 -999 -999 -999 -999
2008-06-26 13:48 51°14.654 2°53.099 -999 -999 -999 -999 -999
2008-06-26 13:49 51°14.616 2°53.34 -999 -999 -999 -999 -999
2008-06-26 13:50 51°14.583 2°53.551 -999 -999 -999 -999 -999
2008-06-26 13:51 51°14.55 2°53.745 -999 -999 -999 -999 -999
2008-06-26 13:52 51°14.523 2°53.91 -999 -999 -999 -999 -999
2008-06-26 13:53 51°14.502 2°54.021 -999 -999 -999 -999 -999
2008-06-26 13:54 51°14.478 2°54.118 -999 -999 -999 -999 -999
2008-06-26 13:55 51°14.459 2°54.204 -999 -999 -999 -999 -999
2008-06-26 13:56 51°14.439 2°54.283 -999 -999 -999 -999 -999
2008-06-26 13:57 51°14.42 2°54.362 -999 -999 -999 -999 -999
2008-06-26 13:58 51°14.403 2°54.431 -999 -999 -999 -999 -999
2008-06-26 13:59 51°14.388 2°54.488 -999 -999 -999 -999 -999
2008-06-26 14:00 51°14.376 2°54.536 -999 -999 -999 -999 -999
2008-06-26 14:01 51°14.362 2°54.576 -999 -999 -999 -999 -999
2008-06-26 14:02 51°14.351 2°54.597 -999 -999 -999 -999 -999
2008-06-26 14:03 51°14.358 2°54.67 -999 -999 -999 -999 -999
2008-06-26 14:04 51°14.397 2°54.744 -999 -999 -999 -999 -999
2008-06-26 14:05 51°14.408 2°54.872 -999 -999 -999 -999 -999
2008-06-26 14:06 51°14.332 2°55.103 -999 -999 -999 -999 -999
2008-06-26 14:07 51°14.201 2°55.334 -999 -999 -999 -999 -999
2008-06-26 14:08 51°14.047 2°55.474 -999 -999 -999 -999 -999